Vlieland, Netherlands

1:23 PM CET on January 18, 2017 (GMT +0100)
Vlieland

Weather History for EHVL - November, 2012

Change the Weather History Date:

Friday, November 16, 2012

  Actual Average Record
Temperature  
Mean Temperature 40 °F -  
Max Temperature 41 °F 44 °F 57 °F (2006)
Min Temperature 39 °F 39 °F 33 °F (2011)
Degree Days  
Heating Degree Days 25    
Moisture  
Dew Point 36 °F    
Average Humidity 85    
Maximum Humidity 87    
Minimum Humidity 76    
Precipitation  
Precipitation 0.00 in - - ()
Sea Level Pressure  
Sea Level Pressure 30.03 in    
Wind  
Wind Speed 11 mph ()    
Max Wind Speed 21 mph    
Max Gust Speed -    
Visibility 3.2 miles    
Events      
Averages and records for this station are not official NWS values.
T = Trace of Precipitation, MM = Missing Value Source: Averaged Metar Reports

Daily Weather History Graph

Daily Weather History Graph

Search for Another Location

Airport or City:

Trip Planner

Search our weather history database for the weather conditions in past years. The results will help you decide how hot, cold, wet, or windy it might be!

Date:

Astronomy

Nov. 16, 2012 Rise Set
Actual Time 8:07 AM CET 4:42 PM CET
Civil Twilight 7:28 AM CET 5:21 PM CET
Nautical Twilight 6:45 AM CET 6:03 PM CET
Astronomical Twilight 6:04 AM CET 6:44 PM CET
Moon 10:56 AM CET (11/16) 7:15 PM CET (11/16)
Length of Visible Light 9h 52m
Length of Day
8h 34m
Waxing Crescent, 9% of the Moon is Illuminated
Nov 16
Waxing Crescent
Nov 20
First Quarter
Nov 28
Full
Dec 6
Last Quarter
Dec 13
New

Hourly Weather History & Observations

Time (CET) Temp. Windchill Dew Point Humidity Pressure Visibility Wind Dir Wind Speed Gust Speed Precip Events Conditions
12:25 AM 41.0 °F 34.3 °F 37.4 °F 87% 30.12 in 3.1 mi South 11.5 mph - N/A   Overcast
12:55 AM 41.0 °F 34.3 °F 37.4 °F 87% 30.12 in 3.1 mi South 11.5 mph - N/A   Overcast
1:25 AM 41.0 °F 34.7 °F 35.6 °F 81% 30.12 in 3.1 mi South 10.4 mph - N/A   Overcast
1:55 AM 41.0 °F 34.7 °F 35.6 °F 81% 30.12 in 3.7 mi South 10.4 mph - N/A   Overcast
2:25 AM 41.0 °F 34.7 °F 35.6 °F 81% 30.12 in 3.7 mi SSW 10.4 mph - N/A   Overcast
2:55 AM 39.2 °F 32.5 °F 35.6 °F 87% 30.12 in 3.1 mi SW 10.4 mph - N/A   Overcast
3:25 AM 39.2 °F 32.5 °F 35.6 °F 87% 30.12 in 3.1 mi SSW 10.4 mph - N/A   Overcast
3:55 AM 39.2 °F 33.0 °F 35.6 °F 87% 30.09 in 3.1 mi SSW 9.2 mph - N/A   Overcast
4:25 AM 39.2 °F 32.5 °F 35.6 °F 87% 30.09 in 3.1 mi SSW 10.4 mph - N/A   Overcast
4:55 AM 39.2 °F 32.5 °F 35.6 °F 87% 30.09 in 3.1 mi South 10.4 mph - N/A   Overcast
5:05 AM 39.2 °F 33.0 °F 35.6 °F 87% 30.09 in - South 9.2 mph - N/A   Overcast
5:25 AM 39.2 °F 32.5 °F 35.6 °F 87% 30.09 in - SSE 10.4 mph - N/A   Overcast
5:35 AM 39.2 °F 32.5 °F 35.6 °F 87% 30.09 in 3.1 mi SSE 10.4 mph - N/A   Overcast
5:55 AM 39.2 °F 33.6 °F 35.6 °F 87% 30.09 in 3.1 mi SSE 8.1 mph - N/A   Overcast
6:25 AM 39.2 °F 33.0 °F 35.6 °F 87% 30.06 in 3.1 mi South 9.2 mph - N/A   Overcast
6:42 AM 39.2 °F 32.5 °F 35.6 °F 87% 30.06 in - South 10.4 mph - N/A   Overcast
6:55 AM 39.2 °F 33.0 °F 35.6 °F 87% 30.06 in - South 9.2 mph - N/A   Overcast
7:25 AM 39.2 °F 32.5 °F 33.8 °F 81% 30.06 in - South 10.4 mph - N/A   Overcast
7:55 AM 39.2 °F 32.5 °F 33.8 °F 81% 30.06 in - South 10.4 mph - N/A   Overcast
8:25 AM 39.2 °F 31.6 °F 35.6 °F 87% 30.06 in - South 12.7 mph - N/A   Overcast
8:42 AM 39.2 °F 31.6 °F 35.6 °F 87% 30.06 in 3.1 mi South 12.7 mph - N/A   Overcast
8:46 AM 39.2 °F 31.2 °F 35.6 °F 87% 30.06 in 3.1 mi South 13.8 mph - N/A   Overcast
8:55 AM 39.2 °F 31.6 °F 35.6 °F 87% 30.06 in 3.1 mi South 12.7 mph - N/A   Overcast
9:04 AM 39.2 °F 31.6 °F 35.6 °F 87% 30.06 in 3.1 mi South 12.7 mph - N/A   Overcast
9:08 AM 41.0 °F 34.3 °F 35.6 °F 81% 30.06 in 3.1 mi South 11.5 mph - N/A   Overcast
9:14 AM 39.2 °F 32.0 °F 35.6 °F 87% 30.06 in 3.1 mi South 11.5 mph - N/A   Overcast
9:18 AM 39.2 °F 32.0 °F 35.6 °F 87% 30.06 in 3.1 mi South 11.5 mph - N/A   Overcast
9:25 AM 41.0 °F 33.9 °F 35.6 °F 81% 30.06 in 3.1 mi South 12.7 mph - N/A   Overcast
9:37 AM 39.2 °F 32.0 °F 35.6 °F 87% 30.06 in 3.1 mi South 11.5 mph - N/A   Overcast
9:41 AM 39.2 °F 32.0 °F 35.6 °F 87% 30.06 in 3.1 mi South 11.5 mph - N/A   Overcast
9:45 AM 39.2 °F 32.0 °F 35.6 °F 87% 30.06 in 3.1 mi South 11.5 mph - N/A   Overcast
9:55 AM 39.2 °F 32.0 °F 35.6 °F 87% 30.06 in 3.1 mi South 11.5 mph - N/A   Overcast
10:25 AM 39.2 °F 31.2 °F 35.6 °F 87% 30.06 in 3.1 mi South 13.8 mph - N/A   Overcast
10:55 AM 39.2 °F 32.5 °F 33.8 °F 81% 30.06 in 3.7 mi South 10.4 mph - N/A   Overcast
11:25 AM 41.0 °F 34.7 °F 33.8 °F 76% 30.06 in 3.1 mi SSW 10.4 mph - N/A   Overcast
11:55 AM 39.2 °F 33.0 °F 33.8 °F 81% 30.06 in 3.1 mi South 9.2 mph - N/A   Overcast
12:18 PM 39.2 °F 32.5 °F 33.8 °F 81% 30.04 in 3.1 mi South 10.4 mph - N/A   Overcast
12:25 PM 41.0 °F 34.7 °F 35.6 °F 81% 30.04 in 3.1 mi South 10.4 mph - N/A   Overcast
12:55 PM 41.0 °F 34.3 °F 35.6 °F 81% 30.04 in 3.1 mi South 11.5 mph - N/A   Overcast
1:25 PM 39.2 °F 32.5 °F 35.6 °F 87% 30.04 in 3.1 mi South 10.4 mph - N/A   Overcast
1:55 PM 39.2 °F 33.0 °F 33.8 °F 81% 30.04 in 3.7 mi South 9.2 mph - N/A   Overcast
2:25 PM 39.2 °F 32.5 °F 33.8 °F 81% 30.01 in 3.7 mi South 10.4 mph - N/A   Overcast
2:55 PM 39.2 °F 31.6 °F 33.8 °F 81% 30.01 in 3.7 mi South 12.7 mph - N/A   Overcast
3:25 PM 39.2 °F 32.0 °F 33.8 °F 81% 30.01 in 3.7 mi South 11.5 mph - N/A   Overcast
3:55 PM 39.2 °F 31.6 °F 33.8 °F 81% 30.01 in 3.1 mi South 12.7 mph - N/A   Overcast
4:25 PM 39.2 °F 31.2 °F 33.8 °F 81% 30.01 in 3.1 mi SSE 13.8 mph - N/A   Overcast
4:55 PM 39.2 °F 31.2 °F 35.6 °F 87% 30.01 in 3.1 mi SSE 13.8 mph - N/A   Overcast
5:25 PM 39.2 °F 31.2 °F 35.6 °F 87% 29.98 in 3.1 mi SSE 13.8 mph - N/A   Overcast
5:55 PM 39.2 °F 31.2 °F 35.6 °F 87% 29.98 in - SSE 13.8 mph - N/A   Overcast
6:25 PM 39.2 °F 30.8 °F 35.6 °F 87% 29.98 in - South 15.0 mph - N/A   Overcast
6:55 PM 39.2 °F 30.5 °F 35.6 °F 87% 29.98 in 3.1 mi SSE 16.1 mph - N/A   Overcast
7:25 PM 39.2 °F 29.8 °F 35.6 °F 87% 29.95 in 3.1 mi SSE 18.4 mph - N/A   Overcast
7:55 PM 39.2 °F 30.5 °F 35.6 °F 87% 29.98 in 3.1 mi SSE 16.1 mph - N/A   Overcast
8:25 PM 41.0 °F 33.5 °F 35.6 °F 81% 29.98 in - South 13.8 mph - N/A   Overcast
8:55 PM 41.0 °F 33.5 °F 35.6 °F 81% 29.95 in - South 13.8 mph - N/A   Overcast
9:25 PM 41.0 °F 33.9 °F 37.4 °F 87% 29.95 in - South 12.7 mph - N/A   Overcast
9:55 PM 41.0 °F 33.9 °F 37.4 °F 87% 29.95 in - South 12.7 mph - N/A   Overcast
10:25 PM 41.0 °F 33.5 °F 37.4 °F 87% 29.92 in - SSE 13.8 mph - N/A   Overcast
10:55 PM 41.0 °F 31.6 °F 37.4 °F 87% 29.89 in - SSE 20.7 mph - N/A   Mostly Cloudy
11:04 PM 41.0 °F 31.9 °F 37.4 °F 87% 29.89 in - SSE 19.6 mph - N/A   Scattered Clouds
11:08 PM 41.0 °F 31.9 °F 37.4 °F 87% 29.89 in - SSE 19.6 mph - N/A   Mostly Cloudy
11:25 PM 41.0 °F 32.5 °F 37.4 °F 87% 29.89 in - SSE 17.3 mph - N/A   Mostly Cloudy
11:55 PM 41.0 °F 32.8 °F 37.4 °F 87% 29.89 in 2.8 mi South 16.1 mph - N/A   Mostly Cloudy